Date String (YYYY-MM-DD hh:mm:ss) UTC,Instrument flags,Ambient pressure (hPa),Sample flow (lpm),Bypass flow (lpm),Sample temperature (°C),Ambient temperature (°C),ASC tube jacket temperature (°C),LED temperature (°C),Box temperature (°C),Sample RH (%),Span deviation,Mass concentration (μg/m³),Mass concentration (μg/m³),Mass concentration (μg/m³)
DateTimeUTC,F1_M11,P_M11,Q1_M11,Q2_M11,T1_M11,T2_M11,T3_M11,T4_M11,T5_M11,U1_M11,ZSPAN_M11,X0_M11,X2_M11,X1_M11
2022-09-18 02:00:00,,0822.1,5.00,0.00,30.0,28.9,00.0,38.7,31.9,21.4,0000.0,0009.81,0004.52,0004.03
2022-09-18 02:01:00,,0822.1,5.00,0.00,30.0,28.9,00.0,38.7,32.0,21.3,0000.0,0009.19,0004.47,0004.01
2022-09-18 02:02:00,,0822.1,5.00,0.00,30.1,28.5,00.0,38.7,32.0,21.2,0000.0,0008.87,0004.47,0003.98
2022-09-18 02:03:00,,0822.1,5.00,0.00,30.0,27.2,00.0,38.7,31.9,20.9,0000.0,0010.59,0004.45,0003.97
2022-09-18 02:04:00,,0822.1,5.00,0.00,30.0,26.8,00.0,38.6,31.8,21.0,0000.0,0010.86,0004.46,0003.95
2022-09-18 02:05:00,,0822.1,5.01,0.00,29.9,27.0,00.0,38.6,31.7,21.2,0000.0,0011.32,0004.46,0003.92
2022-09-18 02:06:00,,0822.1,5.00,0.00,29.9,27.2,00.0,38.6,31.6,20.9,0000.0,0010.88,0004.45,0003.90
2022-09-18 02:07:00,,0822.2,5.01,0.00,29.9,27.6,00.0,38.6,31.6,21.1,0000.0,0010.74,0004.43,0003.89
2022-09-18 02:08:00,,0822.2,4.99,0.00,29.8,27.8,00.0,38.6,31.6,21.4,0000.0,0010.71,0004.40,0003.87
2022-09-18 02:09:00,,0822.2,5.01,0.00,29.8,28.1,00.0,38.6,31.7,21.5,0000.0,0010.77,0004.41,0003.86
2022-09-18 02:10:00,,0822.3,5.01,0.00,29.9,28.2,00.0,38.6,31.7,21.2,0000.0,0011.14,0004.39,0003.85
2022-09-18 02:11:00,,0822.4,5.00,0.00,29.9,28.4,00.0,38.6,31.7,21.1,0000.0,0012.02,0004.38,0003.84
2022-09-18 02:12:00,,0822.3,4.99,0.00,29.9,28.5,00.0,38.6,31.8,21.4,0000.0,0012.48,0004.42,0003.84
2022-09-18 02:13:00,,0822.4,5.00,0.00,29.9,28.6,00.0,38.6,31.7,21.4,0000.0,0012.52,0004.40,0003.84
2022-09-18 02:14:00,,0822.4,4.99,0.00,29.9,28.7,00.0,38.6,31.8,21.4,0000.0,0010.69,0004.38,0003.83
2022-09-18 02:15:00,,0822.4,5.00,0.00,30.0,28.8,00.0,38.6,31.9,21.6,0000.0,0010.15,0004.39,0003.84
2022-09-18 02:16:00,,0822.4,4.99,0.00,30.0,28.8,00.0,38.6,31.9,21.5,0000.0,0009.69,0004.37,0003.84
2022-09-18 02:17:00,,0822.4,5.03,0.00,30.0,28.9,00.0,38.7,31.9,21.3,0000.0,0009.41,0004.37,0003.84
2022-09-18 02:18:00,,0822.3,4.99,0.00,30.1,28.9,00.0,38.7,32.0,21.3,0000.0,0009.34,0004.37,0003.84
2022-09-18 02:19:00,,0822.4,5.01,0.00,30.1,29.0,00.0,38.7,32.0,21.2,0000.0,0009.55,0004.39,0003.85
2022-09-18 02:20:00,,0822.3,4.99,0.00,30.1,29.0,00.0,38.7,32.0,21.2,0000.0,0009.76,0004.38,0003.85
2022-09-18 02:21:00,,0822.3,4.99,0.00,30.1,28.1,00.0,38.7,32.0,21.1,0000.0,0009.34,0004.44,0003.86
2022-09-18 02:22:00,,0822.4,5.00,0.00,30.1,26.9,00.0,38.7,31.9,21.2,0000.0,0008.47,0004.47,0003.86
2022-09-18 02:23:00,,0822.4,5.00,0.00,30.1,26.8,00.0,38.7,31.8,21.0,0000.0,0007.97,0004.40,0003.86
2022-09-18 02:24:00,,0822.4,5.00,0.00,30.0,27.1,00.0,38.6,31.7,21.0,0000.0,0008.32,0004.40,0003.86
2022-09-18 02:25:00,,0822.4,5.00,0.00,29.9,27.4,00.0,38.6,31.6,20.8,0000.0,0008.33,0004.40,0003.87
2022-09-18 02:26:00,,0822.4,5.00,0.00,29.9,27.6,00.0,38.6,31.6,21.2,0000.0,0008.24,0004.39,0003.87
2022-09-18 02:27:00,,0822.4,5.00,0.00,29.9,27.9,00.0,38.6,31.7,21.3,0000.0,0008.60,0004.41,0003.86
2022-09-18 02:28:00,,0822.4,5.00,0.00,29.9,28.1,00.0,38.6,31.7,21.4,0000.0,0008.71,0004.43,0003.87
2022-09-18 02:29:00,,0822.5,4.99,0.00,29.9,28.3,00.0,38.6,31.7,21.4,0000.0,0008.75,0004.46,0003.87
2022-09-18 02:30:00,,0822.5,5.01,0.00,29.9,28.4,00.0,38.6,31.7,21.4,0000.0,0008.58,0004.48,0003.89
2022-09-18 02:31:00,,0822.6,5.00,0.00,29.9,28.5,00.0,38.6,31.7,21.2,0000.0,0008.87,0004.53,0003.91
2022-09-18 02:32:00,,0822.6,5.01,0.00,30.0,28.6,00.0,38.6,31.8,21.3,0000.0,0009.09,0004.51,0003.93
2022-09-18 02:33:00,,0822.6,4.99,0.00,30.0,28.7,00.0,38.7,31.8,21.3,0000.0,0009.35,0004.49,0003.95
2022-09-18 02:34:00,,0822.6,5.01,0.00,30.0,28.8,00.0,38.7,31.9,21.1,0000.0,0009.75,0004.54,0003.97
2022-09-18 02:35:00,,0822.7,5.00,0.00,30.0,28.8,00.0,38.7,31.9,21.0,0000.0,0010.27,0004.54,0004.00
2022-09-18 02:36:00,,0822.7,5.01,0.00,30.0,28.9,00.0,38.7,31.9,20.8,0000.0,0010.65,0004.57,0004.02
2022-09-18 02:37:00,,0822.7,5.00,0.00,30.1,28.9,00.0,38.7,32.0,20.7,0000.0,0010.72,0004.57,0004.04
2022-09-18 02:38:00,,0822.8,5.01,0.00,30.1,29.0,00.0,38.8,32.0,20.6,0000.0,0010.45,0004.58,0004.06
2022-09-18 02:39:00,,0822.7,5.00,0.00,30.1,28.9,00.0,38.8,32.0,20.6,0000.0,0010.46,0004.61,0004.09
2022-09-18 02:40:00,,0822.7,5.00,0.00,30.1,27.6,00.0,38.8,32.0,20.4,0000.0,0010.56,0004.63,0004.10
2022-09-18 02:41:00,,0822.8,5.01,0.00,30.1,26.8,00.0,38.7,31.9,20.4,0000.0,0010.62,0004.63,0004.11
2022-09-18 02:42:00,,0822.8,5.00,0.00,30.0,26.9,00.0,38.7,31.7,20.5,0000.0,0010.49,0004.60,0004.10
2022-09-18 02:43:00,,0822.7,4.99,0.00,30.0,27.1,00.0,38.7,31.6,20.7,0000.0,0010.41,0004.62,0004.10
2022-09-18 02:44:00,,0822.7,4.99,0.00,29.9,27.5,00.0,38.7,31.6,20.7,0000.0,0010.22,0004.64,0004.10
2022-09-18 02:45:00,,0822.8,5.01,0.00,29.9,27.7,00.0,38.6,31.6,20.7,0000.0,0010.07,0004.64,0004.09
2022-09-18 02:46:00,,0822.8,5.00,0.00,29.9,28.0,00.0,38.6,31.7,20.8,0000.0,0009.87,0004.64,0004.09
2022-09-18 02:47:00,,0822.8,4.99,0.00,29.9,28.2,00.0,38.6,31.7,20.7,0000.0,0010.09,0004.63,0004.08
2022-09-18 02:48:00,,0822.8,5.00,0.00,29.9,28.3,00.0,38.6,31.8,20.6,0000.0,0010.22,0004.66,0004.08
2022-09-18 02:49:00,,0822.8,5.00,0.00,29.9,28.5,00.0,38.6,31.7,20.5,0000.0,0010.31,0004.68,0004.08
2022-09-18 02:50:00,,0822.8,5.01,0.00,29.9,28.6,00.0,38.7,31.8,20.5,0000.0,0010.57,0004.70,0004.08
2022-09-18 02:51:00,,0822.8,5.00,0.00,30.0,28.6,00.0,38.7,31.8,20.4,0000.0,0010.93,0004.68,0004.07
2022-09-18 02:52:00,,0822.8,5.01,0.00,30.0,28.7,00.0,38.7,31.9,20.3,0000.0,0011.07,0004.72,0004.06
2022-09-18 02:53:00,,0822.8,5.01,0.00,30.0,28.8,00.0,38.7,31.9,20.3,0000.0,0010.64,0004.72,0004.06
2022-09-18 02:54:00,,0822.8,4.99,0.00,30.0,28.8,00.0,38.7,31.9,20.4,0000.0,0010.62,0004.74,0004.06
2022-09-18 02:55:00,,0822.8,4.99,0.00,30.1,28.9,00.0,38.7,32.0,20.4,0000.0,0010.52,0004.74,0004.07
2022-09-18 02:56:00,,0822.8,5.01,0.00,30.1,29.0,00.0,38.8,32.0,20.3,0000.0,0010.31,0004.75,0004.08
2022-09-18 02:57:00,,0822.8,4.99,0.00,30.1,29.0,00.0,38.8,32.0,20.3,0000.0,0009.79,0004.77,0004.08
2022-09-18 02:58:00,,0822.8,5.01,0.00,30.2,29.1,00.0,38.8,32.1,20.2,0000.0,0009.16,0004.79,0004.09
2022-09-18 02:59:00,,0822.8,4.98,0.00,30.2,28.7,00.0,38.8,32.1,20.2,0000.0,0009.50,0004.79,0004.10
